Weather Roundup
Issued by NWS Chicago, IL

Home | Current Version | Previous Version | Text Only | Print | Product List | Glossary On
Versions: 1 2 3 4 5 6 7 8 9 10 11 12 13 14 15 16 17 18 19 20 21 22 23 24 25 26 27 28 29 30 31 32 33 34 35 36 37 38 39 40 41 42 43 44 45 46 47 48 49 50
000
NZUS59 KLOT 300410
HRRLOT

CHICAGO AREA WEATHER ROUNDUP
NATIONAL WEATHER SERVICE CHICAGO/ROMEOVILLE IL
1100 PM CDT FRI AUG 29 2014

NOTE: "FAIR" INDICATES FEW OR NO CLOUDS BELOW 12,000 FEET WITH NO
SIGNIFICANT WEATHER AND/OR OBSTRUCTIONS TO VISIBILITY.

* THESE STATIONS ARE NOT UNDER NWS QUALITY CONTROL. THEY ALSO MAY NOT
  REPORT WEATHER SUCH AS PRECIPITATION OR FOG.

ILZ005-006-012>014-019>023-300500-
NORTHEAST ILLINOIS

CITY           SKY/WX    TMP DP  RH WIND       PRES   REMARKS
OHARE          MOCLDY    76  67  73 S12       29.87F
MIDWAY         MOCLDY    78  70  76 S12       29.88F HX  80
AURORA         CLOUDY    74  70  87 SE10      29.87F
LANSING*         N/A    N/A N/A N/A MISG        N/A
JOLIET*        MOCLDY    73  68  83 S6        29.89F
WAUKEGAN       MOCLDY    76  69  79 SE10G18   29.86F
DUPAGE AIRPORT PTCLDY    75  68  78 S13       29.87F
WHEELING       PTCLDY    78  69  73 S12       29.88F HX  80
KANKAKEE*      PTCLDY    71  69  93 SE6       29.92S
MORRIS*        CLOUDY    75  71  87 S10       29.88S
LEWIS AIRPORT* MOCLDY    73  70  91 S10       29.89F
NORTHERLY IS     N/A     75  68  78 SE9         N/A
$$

WIZ051-052-058>065-066-070>072-300500-
SOUTHEAST WISCONSIN

CITY           SKY/WX    TMP DP  RH WIND       PRES   REMARKS
MILWAUKEE      CLOUDY    76  69  79 S13       29.87S THUNDER
KENOSHA*       CLOUDY    75  71  87 SW7       29.87F
RACINE*        CLOUDY    74  69  85 S13       29.88F
BURLINGTON     CLOUDY    69  67  92 SE3       29.86F
WAUKESHA       CLOUDY    68  66  94 SE3       29.87F
WEST BEND      LGT RAIN  73  68  83 S13       29.85S
$$

INZ001>003-010>013-019-020-300500-
NORTHWEST INDIANA

CITY           SKY/WX    TMP DP  RH WIND       PRES   REMARKS
GARY*          PTCLDY    74  69  85 SE8       29.91F
MICHIGAN CITY* NOT AVBL
RENSSELAER*    NOT AVBL
VALPARAISO     MOCLDY    70  67  90 SE6       29.95S
$$

LMZ740>746-300500-
SOUTHERN LAKE MICHIGAN

STATION/POSITION TIME  SKY/WX   TEMP WIND        PRES    VSBY
                                AIR  DIR/SP/G
                 (UTC)          (F)  (DEG/KT/KT) (MB)    (MI)
HARRISON CRIB    0400            73  160/ 16/ 19   N/A
BURNHAM HARBOR   0400            75  150/  9/ 14   N/A
CALUMET HARBOR   0400            74  160/  9/ 14 1011.2F
BURNS HARBOR     NOT AVBL
MICHIGAN CITY    0400            72  130/ 13/ 16   N/A
$$

ABBREVIATIONS USED IN REMARKS
   TC - TEMPERATURE IN CELSIUS
  WCI - WIND CHILL INDEX
   HX - HEAT INDEX
  VSB - VISIBILITY
$$



USA.gov is the U.S. government's official web portal to all federal, state and local government web resources and services.